Regional Weather Roundup
Issued by NWS

Home | Current Version | Previous Version | Graphics & Text | Print | Product List | Glossary On
Versions: 1 2 3 4 5 6 7 8 9 10 11 12 13 14 15 16 17 18 19 20 21 22 23 24 25 26 27 28 29 30 31 32 33 34 35 36 37 38 39 40 41 42 43 44 45 46 47 48 49 50
000
ASUS43 KOAX 292102
RWRNE

WEATHER ROUNDUP FOR NEBRASKA
NATIONAL WEATHER SERVICE OMAHA NE
400 PM CDT SAT AUG 29 2015

NOTES: SATELLITE DATA IS BEING USED TO AUGMENT CLOUD COVER ABOVE
       12000 FEET.
       "FAIR" INDICATES FEW OR NO CLOUDS BELOW 12,000 FEET WITH NO
       SIGNIFICANT WEATHER AND/OR OBSTRUCTIONS TO VISIBILITY.

  * THESE STATIONS DO NOT REPORT WEATHER SUCH AS RAIN...SNOW OR FOG.

NEZ001>004-019>022-054>056-292200-
NEBRASKA PANHANDLE

CITY           SKY/WX    TMP DP  RH WIND       PRES   REMARKS
SCOTTSBLUFF    FAIR      93  40  15 S9        30.07F
ALLIANCE       FAIR      92  38  15 SW9G18    30.08F
CHADRON        FAIR      97  41  14 SW8       30.00F HAZE    HX  92
KIMBALL        FAIR      88  35  15 S13       30.15F
SIDNEY         FAIR      92  34  13 S10       30.14F
$$

NEZ057>060-069>072-079>082-292200-
SOUTHWEST NEBRASKA

CITY           SKY/WX    TMP DP  RH WIND       PRES   REMARKS
NORTH PLATTE   FAIR      90  53  28 S7        30.06F
IMPERIAL       FAIR      92  46  20 VRB6      30.09F
MCCOOK         FAIR      92  45  19 SE5       30.07F
$$

NEZ005>010-023>029-035>040-094-292200-
NORTH CENTRAL NEBRASKA

CITY           SKY/WX    TMP DP  RH WIND       PRES   REMARKS
VALENTINE      FAIR      92  48  22 S10       30.01F
AINSWORTH      FAIR      89  53  28 S10       30.04F
BROKEN BOW     FAIR      87  61  41 S3        30.07F
O`NEILL        FAIR      85  63  47 SE9       30.04F
ORD            FAIR      86  62  44 E6        30.04F
$$

NEZ041-046>049-061>064-073>077-083>087-292200-
SOUTH CENTRAL NEBRASKA

CITY           SKY/WX    TMP DP  RH WIND       PRES   REMARKS
GRAND ISLAND   FAIR      82  60  47 VRB3      30.06F
AURORA         FAIR      78  62  58 E5        30.06F
HASTINGS       FAIR      82  63  52 NE6       30.07F
KEARNEY *      FAIR      82  63  51 SE8       30.07F
YORK           FAIR      75  64  69 NE3       30.06F
$$

NEZ011>018-030>034-042>045-292200-
NORTHEAST NEBRASKA

CITY           SKY/WX    TMP DP  RH WIND       PRES   REMARKS
NORFOLK        FAIR      77  62  59 SE8       30.05F
BLAIR          CLOUDY    66  60  80 NE5       30.06F
COLUMBUS *     FAIR     N/A N/A N/A E3        30.04F
FREMONT        FAIR      72  62  70 CALM      30.06F
TEKAMAH        CLOUDY    67  61  81 E3        30.06F
$$

NEZ050>053-065>068-078-088>093-292200-
SOUTHEAST NEBRASKA

CITY           SKY/WX    TMP DP  RH WIND       PRES   REMARKS
LINCOLN        FAIR      73  63  70 E6        30.06F
OMAHA EPPLEY   CLOUDY    71  62  73 W5        30.05F
FALLS CITY     CLOUDY    68  63  84 N7        30.04F
PLATTSMOUTH    CLOUDY    67  59  74 CALM      30.06F
$$

NEZ044-045-051>053-067-292200-
OMAHA AREA

CITY           SKY/WX    TMP DP  RH WIND       PRES   REMARKS
OMAHA EPPLEY   CLOUDY    71  62  73 W5        30.05F
BLAIR          CLOUDY    66  60  80 NE5       30.06F
FREMONT        FAIR      72  62  70 CALM      30.06F
OFFUTT AFB     CLOUDY    69  61  75 E3        30.05F
PLATTSMOUTH    CLOUDY    67  59  74 CALM      30.06F
WAHOO          FAIR      72  64  75 CALM      30.06F
$$




USA.gov is the U.S. government's official web portal to all federal, state and local government web resources and services.